,,PA_Meas_PMT16A,,PR_Meas_QMR101_102,,RH_Meas_QMH101,,SR_Meas_QMS101,,TA_Meas_QMH101,,GenWind,,GenWind,
time,status,PA,status,PR,status,RH,status,SR,status,TA,status,DirAvg,status,SpdAvg,
2011-04-01, 00:00:05,VALID,917.909,VALID,0,VALID,92.4644,VALID,0,VALID,20.4244,VALID,25,VALID,2.03672,
2011-04-01, 00:01:05,VALID,917.877,VALID,0,VALID,92.4644,VALID,0,VALID,20.4439,VALID,24,VALID,2.30312,
2011-04-01, 00:02:05,VALID,917.866,VALID,0,VALID,92.594,VALID,0,VALID,20.3854,VALID,24,VALID,2.12812,
2011-04-01, 00:03:05,VALID,917.849,VALID,0,VALID,92.594,VALID,0,VALID,20.3854,VALID,21,VALID,2.24297,
2011-04-01, 00:04:05,VALID,917.863,VALID,0,VALID,92.594,VALID,0,VALID,20.3854,VALID,10,VALID,1.29688,
2011-04-01, 00:05:05,VALID,917.84,VALID,0,VALID,92.6245,VALID,0,VALID,20.3854,VALID,17,VALID,1.29297,
2011-04-01, 00:06:05,VALID,917.818,VALID,0,VALID,92.7693,VALID,0,VALID,20.3448,VALID,17,VALID,1.12461,
2011-04-01, 00:07:05,VALID,917.792,VALID,0,VALID,92.9218,VALID,0,VALID,20.3464,VALID,17,VALID,1.48633,
2011-04-01, 00:08:05,VALID,917.791,VALID,0,VALID,93.0743,VALID,0,VALID,20.3269,VALID,17,VALID,1.70898,
2011-04-01, 00:09:05,VALID,917.82,VALID,0,VALID,93.3411,VALID,0,VALID,20.2879,VALID,17,VALID,1.1957,
2011-04-01, 00:10:05,VALID,917.781,VALID,0,VALID,93.5851,VALID,0,VALID,20.2879,VALID,17,VALID,1.275,
2011-04-01, 00:11:05,VALID,917.812,VALID,0,VALID,93.7375,VALID,0,VALID,20.2489,VALID,17,VALID,0.792969,
2011-04-01, 00:12:05,VALID,917.784,VALID,0,VALID,93.9205,VALID,0,VALID,20.2098,VALID,20,VALID,1.23633,
2011-04-01, 00:13:05,VALID,917.811,VALID,0,VALID,94.0348,VALID,0,VALID,20.2098,VALID,8,VALID,1.68789,
2011-04-01, 00:14:05,VALID,917.817,VALID,0,VALID,94.1492,VALID,0,VALID,20.1693,VALID,1,VALID,1.02578,
2011-04-01, 00:15:05,VALID,917.841,VALID,0,VALID,94.1949,VALID,0,VALID,20.1708,VALID,1,VALID,0.803906,
2011-04-01, 00:16:05,VALID,917.856,VALID,0,VALID,94.2788,VALID,0,VALID,20.1919,VALID,1,VALID,0.963672,
2011-04-01, 00:17:05,VALID,917.844,VALID,0,VALID,94.3398,VALID,0,VALID,20.1724,VALID,1,VALID,0.864844,
2011-04-01, 00:18:05,VALID,917.838,VALID,0,VALID,94.4084,VALID,0,VALID,20.1513,VALID,360,VALID,0.914453,
2011-04-01, 00:19:05,VALID,917.812,VALID,0,VALID,94.4541,VALID,0,VALID,20.1318,VALID,341,VALID,0.778906,
2011-04-01, 00:20:05,VALID,917.785,VALID,0,VALID,94.5685,VALID,0,VALID,20.1123,VALID,341,VALID,0.972656,
2011-04-01, 00:21:05,VALID,917.742,VALID,0,VALID,94.5913,VALID,0,VALID,20.1108,VALID,3,VALID,2.04922,
2011-04-01, 00:22:05,VALID,917.738,VALID,0,VALID,94.5685,VALID,0,VALID,20.1498,VALID,5,VALID,0.827344,
2011-04-01, 00:23:05,VALID,917.736,VALID,0,VALID,94.4999,VALID,0,VALID,20.1303,VALID,311,VALID,1.07656,
2011-04-01, 00:24:05,VALID,917.713,VALID,0,VALID,94.4694,VALID,0,VALID,20.1498,VALID,320,VALID,0.666406,
2011-04-01, 00:25:05,VALID,917.691,VALID,0,VALID,94.4999,VALID,0.107441,VALID,20.1498,VALID,360,VALID,1.16836,
2011-04-01, 00:26:05,VALID,917.654,VALID,0,VALID,94.5227,VALID,0,VALID,20.1303,VALID,4,VALID,1.1918,
2011-04-01, 00:27:05,VALID,917.671,VALID,0,VALID,94.5609,VALID,0.107441,VALID,20.1108,VALID,20,VALID,0.538281,
2011-04-01, 00:28:05,VALID,917.639,VALID,0,VALID,94.6066,VALID,0,VALID,20.1108,VALID,20,VALID,0.908984,
2011-04-01, 00:29:05,VALID,917.59,VALID,0,VALID,94.6218,VALID,0,VALID,20.1108,VALID,339,VALID,1.01289,
2011-04-01, 00:30:05,VALID,917.592,VALID,0,VALID,94.6295,VALID,0,VALID,20.0913,VALID,339,VALID,0.985156,
2011-04-01, 00:31:05,VALID,917.565,VALID,0,VALID,94.6752,VALID,0.107441,VALID,20.1108,VALID,339,VALID,0.819922,
2011-04-01, 00:32:04,VALID,917.529,VALID,0,VALID,94.6447,VALID,0,VALID,20.1318,VALID,7,VALID,1.24375,
2011-04-01, 00:33:04,VALID,917.528,VALID,0,VALID,94.599,VALID,0,VALID,20.1108,VALID,321,VALID,2.02695,
2011-04-01, 00:34:04,VALID,917.527,VALID,0,VALID,94.4922,VALID,0.107441,VALID,20.1498,VALID,350,VALID,0.757031,
2011-04-01, 00:35:04,VALID,917.543,VALID,0,VALID,94.3855,VALID,0.107441,VALID,20.1513,VALID,349,VALID,1.23867,
2011-04-01, 00:36:04,VALID,917.487,VALID,0,VALID,94.3093,VALID,0,VALID,20.1513,VALID,350,VALID,0.917969,
2011-04-01, 00:37:04,VALID,917.506,VALID,0,VALID,94.2864,VALID,0,VALID,20.1513,VALID,349,VALID,0.894141,
2011-04-01, 00:38:04,VALID,917.524,VALID,0,VALID,94.2788,VALID,0,VALID,20.1513,VALID,349,VALID,0.896484,
2011-04-01, 00:39:04,VALID,917.494,VALID,0,VALID,94.3245,VALID,0,VALID,20.1724,VALID,349,VALID,0.575,
2011-04-01, 00:40:04,VALID,917.466,VALID,0,VALID,94.3855,VALID,0,VALID,20.1318,VALID,349,VALID,0.552734,
2011-04-01, 00:41:04,VALID,917.442,VALID,0,VALID,94.4389,VALID,0,VALID,20.1123,VALID,349,VALID,0.771094,
2011-04-01, 00:42:04,VALID,917.433,VALID,0,VALID,94.5227,VALID,0,VALID,20.1334,VALID,349,VALID,1.075,
2011-04-01, 00:43:04,VALID,917.413,VALID,0,VALID,94.5837,VALID,0,VALID,20.1123,VALID,349,VALID,0.324219,
2011-04-01, 00:44:04,VALID,917.362,VALID,0,VALID,94.6523,VALID,0,VALID,20.1139,VALID,350,VALID,0.786328,
2011-04-01, 00:45:04,VALID,917.344,VALID,0,VALID,94.7209,VALID,0,VALID,20.0928,VALID,349,VALID,0.640625,
2011-04-01, 00:46:04,VALID,917.345,VALID,0,VALID,94.8048,VALID,0,VALID,20.0733,VALID,349,VALID,0.748438,
2011-04-01, 00:47:04,VALID,917.245,VALID,0,VALID,94.881,VALID,0,VALID,20.0538,VALID,350,VALID,1.10508,
2011-04-01, 00:48:04,VALID,917.299,VALID,0,VALID,94.9725,VALID,0,VALID,20.0343,VALID,350,VALID,0.810938,
2011-04-01, 00:49:04,VALID,917.2,VALID,0,VALID,95.0335,VALID,0,VALID,20.0538,VALID,350,VALID,0.545313,
2011-04-01, 00:50:04,VALID,917.203,VALID,0,VALID,95.0488,VALID,0,VALID,20.0749,VALID,3,VALID,1.06406,
2011-04-01, 00:51:04,VALID,917.23,VALID,0,VALID,94.9725,VALID,0,VALID,20.0733,VALID,330,VALID,0.945313,
2011-04-01, 00:52:04,VALID,917.214,VALID,0,VALID,94.9649,VALID,0,VALID,20.0343,VALID,330,VALID,0.251953,
2011-04-01, 00:53:04,VALID,917.158,VALID,0,VALID,94.9496,VALID,0,VALID,20.0928,VALID,18,VALID,1.43008,
2011-04-01, 00:54:04,VALID,917.141,VALID,0,VALID,94.5151,VALID,0,VALID,20.0733,VALID,358,VALID,1.36992,
2011-04-01, 00:55:04,VALID,917.12,VALID,0,VALID,93.89,VALID,0,VALID,20.0733,VALID,4,VALID,1.12734,
2011-04-01, 00:56:04,VALID,917.12,VALID,0,VALID,93.5469,VALID,0,VALID,20.1513,VALID,4,VALID,1.30938,
2011-04-01, 00:57:04,VALID,917.125,VALID,0,VALID,93.4555,VALID,0,VALID,20.2098,VALID,4,VALID,0.775,
2011-04-01, 00:58:04,VALID,917.113,VALID,0,VALID,93.5164,VALID,0,VALID,20.2293,VALID,4,VALID,0.778516,
2011-04-01, 00:59:04,VALID,917.109,VALID,0,VALID,93.7375,VALID,0,VALID,20.2098,VALID,358,VALID,1.43047,
2011-04-01, 01:00:04,VALID,917.117,VALID,0,VALID,93.6842,VALID,0,VALID,20.1888,VALID,348,VALID,1.33008,
2011-04-01, 01:01:04,VALID,917.094,VALID,0,VALID,93.89,VALID,0,VALID,20.2098,VALID,28,VALID,1.71484,
2011-04-01, 01:02:04,VALID,917.074,VALID,0,VALID,93.9815,VALID,0,VALID,20.2098,VALID,28,VALID,1.95898,
2011-04-01, 01:03:04,VALID,917.04,VALID,0,VALID,93.8519,VALID,0,VALID,20.1708,VALID,21,VALID,1.41641,
2011-04-01, 01:04:04,VALID,917.079,VALID,0,VALID,93.6918,VALID,0,VALID,20.1708,VALID,20,VALID,1.10273,
2011-04-01, 01:05:04,VALID,917.065,VALID,0,VALID,93.2572,VALID,0,VALID,20.1708,VALID,20,VALID,1.48086,
2011-04-01, 01:06:04,VALID,917.066,VALID,0,VALID,92.7236,VALID,0.107441,VALID,20.1888,VALID,20,VALID,1.54414,
2011-04-01, 01:07:04,VALID,917.049,VALID,0,VALID,92.4187,VALID,0,VALID,20.2083,VALID,20,VALID,1.54844,
2011-04-01, 01:08:04,VALID,917.008,VALID,0,VALID,91.9613,VALID,0.107441,VALID,20.2278,VALID,20,VALID,1.09687,
2011-04-01, 01:09:04,VALID,916.998,VALID,0,VALID,91.8317,VALID,0,VALID,20.2473,VALID,20,VALID,0.917969,
2011-04-01, 01:10:04,VALID,916.992,VALID,0,VALID,91.8164,VALID,0,VALID,20.2863,VALID,20,VALID,1.46875,
2011-04-01, 01:11:04,VALID,916.974,VALID,0,VALID,91.9536,VALID,0,VALID,20.2668,VALID,20,VALID,1.08164,
2011-04-01, 01:12:04,VALID,916.957,VALID,0,VALID,92.0756,VALID,0,VALID,20.2668,VALID,20,VALID,1.84531,
2011-04-01, 01:13:04,VALID,916.933,VALID,0,VALID,91.8393,VALID,0.107441,VALID,20.2668,VALID,20,VALID,1.9168,
2011-04-01, 01:14:04,VALID,916.919,VALID,0,VALID,91.298,VALID,0.107441,VALID,20.2668,VALID,14,VALID,1.90234,
2011-04-01, 01:15:04,VALID,916.908,VALID,0,VALID,91.1684,VALID,0.107441,VALID,20.3058,VALID,12,VALID,0.710938,
2011-04-01, 01:16:04,VALID,916.889,VALID,0,VALID,91.1608,VALID,0.107441,VALID,20.3043,VALID,12,VALID,0.841016,
2011-04-01, 01:17:04,VALID,916.844,VALID,0,VALID,91.3895,VALID,0,VALID,20.3253,VALID,12,VALID,1.05039,
2011-04-01, 01:18:04,VALID,916.82,VALID,0,VALID,90.955,VALID,0,VALID,20.3058,VALID,12,VALID,0.353516,
2011-04-01, 01:19:04,VALID,916.82,VALID,0,VALID,90.8483,VALID,0.107441,VALID,20.3058,VALID,12,VALID,0.0742188,
2011-04-01, 01:20:04,VALID,916.801,VALID,0,VALID,90.8483,VALID,0.107441,VALID,20.3058,VALID,12,VALID,0.570703,
2011-04-01, 01:21:04,VALID,916.763,VALID,0,VALID,90.7415,VALID,0,VALID,20.3464,VALID,12,VALID,0.433594,
2011-04-01, 01:22:04,VALID,916.743,VALID,0,VALID,90.8101,VALID,0,VALID,20.3464,VALID,12,VALID,0.691797,
2011-04-01, 01:23:04,VALID,916.773,VALID,0,VALID,90.8787,VALID,0,VALID,20.3253,VALID,12,VALID,0.218359,
2011-04-01, 01:24:04,VALID,916.744,VALID,0,VALID,91.0922,VALID,0,VALID,20.3464,VALID,12,VALID,0,
2011-04-01, 01:25:04,VALID,916.731,VALID,0,VALID,91.2675,VALID,0,VALID,20.3479,VALID,12,VALID,0.361719,
2011-04-01, 01:26:04,VALID,916.721,VALID,0,VALID,91.3666,VALID,0,VALID,20.3269,VALID,12,VALID,0.399609,
2011-04-01, 01:27:04,VALID,916.661,VALID,0,VALID,91.2752,VALID,0,VALID,20.2879,VALID,12,VALID,0.820313,
2011-04-01, 01:28:04,VALID,916.691,VALID,0,VALID,91.2447,VALID,0,VALID,20.2278,VALID,12,VALID,0.478516,
2011-04-01, 01:29:04,VALID,916.692,VALID,0,VALID,91.1379,VALID,0,VALID,20.2489,VALID,12,VALID,0.542969,
2011-04-01, 01:30:04,VALID,916.669,VALID,0,VALID,91.0312,VALID,0,VALID,20.2278,VALID,13,VALID,0.585547,
2011-04-01, 01:31:04,VALID,916.63,VALID,0,VALID,91.0846,VALID,0,VALID,20.2293,VALID,13,VALID,1.11523,
2011-04-01, 01:32:04,VALID,916.579,VALID,0,VALID,91.1379,VALID,0,VALID,20.2293,VALID,13,VALID,1.02422,
2011-04-01, 01:33:04,VALID,916.581,VALID,0,VALID,90.5662,VALID,0,VALID,20.2293,VALID,13,VALID,1.3918,
2011-04-01, 01:34:04,VALID,916.571,VALID,0,VALID,90.2155,VALID,0,VALID,20.2684,VALID,42,VALID,1.27383,
2011-04-01, 01:35:04,VALID,916.578,VALID,0,VALID,89.7429,VALID,0,VALID,20.2879,VALID,9,VALID,0.710938,
2011-04-01, 01:36:04,VALID,916.572,VALID,0,VALID,89.7352,VALID,0,VALID,20.3464,VALID,9,VALID,0.157422,
2011-04-01, 01:37:04,VALID,916.542,VALID,0,VALID,89.6742,VALID,0,VALID,20.3854,VALID,9,VALID,0.202344,
2011-04-01, 01:38:04,VALID,916.487,VALID,0,VALID,90.1469,VALID,0,VALID,20.4049,VALID,9,VALID,0.660547,
2011-04-01, 01:39:04,VALID,916.498,VALID,0,VALID,90.0478,VALID,0,VALID,20.3869,VALID,9,VALID,0.557422,
2011-04-01, 01:40:04,VALID,916.495,VALID,0,VALID,90.0935,VALID,0,VALID,20.3659,VALID,9,VALID,0.605859,
2011-04-01, 01:41:04,VALID,916.439,VALID,0,VALID,90.0935,VALID,0,VALID,20.3058,VALID,9,VALID,1.09063,
2011-04-01, 01:42:04,VALID,916.425,VALID,0,VALID,90.1621,VALID,0,VALID,20.3464,VALID,28,VALID,0.626562,
2011-04-01, 01:43:04,VALID,916.439,VALID,0,VALID,89.8267,VALID,0,VALID,20.3464,VALID,28,VALID,0.648828,
2011-04-01, 01:44:04,VALID,916.431,VALID,0,VALID,89.7657,VALID,0,VALID,20.3464,VALID,28,VALID,0.51875,
2011-04-01, 01:45:04,VALID,916.414,VALID,0,VALID,90.1926,VALID,0,VALID,20.3464,VALID,28,VALID,0.642187,
2011-04-01, 01:46:04,VALID,916.383,VALID,0,VALID,90.2155,VALID,0,VALID,20.3269,VALID,28,VALID,0.75625,
2011-04-01, 01:47:04,VALID,916.382,VALID,0,VALID,89.4837,VALID,0,VALID,20.3074,VALID,19,VALID,1.96914,
2011-04-01, 01:48:04,VALID,916.345,VALID,0,VALID,89.4379,VALID,0,VALID,20.3659,VALID,13,VALID,1.09453,
2011-04-01, 01:49:04,VALID,916.318,VALID,0,VALID,89.5218,VALID,0,VALID,20.3854,VALID,13,VALID,1.50586,
2011-04-01, 01:50:04,VALID,916.276,VALID,0,VALID,89.5294,VALID,0,VALID,20.3854,VALID,13,VALID,1.33047,
2011-04-01, 01:51:04,VALID,916.289,VALID,0,VALID,89.5523,VALID,0,VALID,20.3854,VALID,13,VALID,0.804297,
2011-04-01, 01:52:04,VALID,916.285,VALID,0,VALID,89.8267,VALID,0,VALID,20.3869,VALID,13,VALID,1.13711,
2011-04-01, 01:53:04,VALID,916.295,VALID,0,VALID,90.063,VALID,0,VALID,20.3659,VALID,13,VALID,1.26328,
2011-04-01, 01:54:04,VALID,916.272,VALID,0,VALID,90.3375,VALID,0,VALID,20.3464,VALID,13,VALID,0.638281,
2011-04-01, 01:55:04,VALID,916.253,VALID,0,VALID,90.4213,VALID,0,VALID,20.3074,VALID,13,VALID,0.597266,
2011-04-01, 01:56:04,VALID,916.256,VALID,0,VALID,90.6043,VALID,0,VALID,20.2879,VALID,13,VALID,0.919531,
2011-04-01, 01:57:04,VALID,916.235,VALID,0,VALID,90.6119,VALID,0,VALID,20.2684,VALID,13,VALID,1.04961,
2011-04-01, 01:58:04,VALID,916.17,VALID,0,VALID,90.5281,VALID,0,VALID,20.2293,VALID,13,VALID,0.751953,
2011-04-01, 01:59:04,VALID,916.174,VALID,0,VALID,90.5281,VALID,0,VALID,20.2293,VALID,13,VALID,1.02773,
2011-04-01, 02:00:04,VALID,916.182,VALID,0,VALID,90.1088,VALID,0,VALID,20.2293,VALID,13,VALID,1.03594,
2011-04-01, 02:01:04,VALID,916.178,VALID,0,VALID,89.6819,VALID,0,VALID,20.2684,VALID,13,VALID,0.695703,
2011-04-01, 02:02:04,VALID,916.167,VALID,0,VALID,89.598,VALID,0,VALID,20.2879,VALID,13,VALID,0.279687,
2011-04-01, 02:03:04,VALID,916.186,VALID,0,VALID,89.5675,VALID,0,VALID,20.3269,VALID,13,VALID,0.615625,
2011-04-01, 02:04:04,VALID,916.169,VALID,0,VALID,89.8191,VALID,0,VALID,20.3269,VALID,13,VALID,0.999609,
2011-04-01, 02:05:04,VALID,916.188,VALID,0,VALID,89.8953,VALID,0,VALID,20.2863,VALID,13,VALID,1.3332,
2011-04-01, 02:06:04,VALID,916.17,VALID,0,VALID,90.1393,VALID,0,VALID,20.2879,VALID,13,VALID,0.507813,
2011-04-01, 02:07:04,VALID,916.154,VALID,0,VALID,90.3146,VALID,0,VALID,20.2879,VALID,13,VALID,0,
2011-04-01, 02:08:04,VALID,916.171,VALID,0,VALID,90.4671,VALID,0,VALID,20.2489,VALID,13,VALID,0.0683594,
2011-04-01, 02:09:04,VALID,916.148,VALID,0,VALID,90.6805,VALID,0,VALID,20.2293,VALID,13,VALID,0.8375,
2011-04-01, 02:10:04,VALID,916.14,VALID,0,VALID,90.8864,VALID,0,VALID,20.2098,VALID,13,VALID,0.712891,
2011-04-01, 02:11:04,VALID,916.159,VALID,0,VALID,91.0465,VALID,0,VALID,20.1693,VALID,13,VALID,0.0195313,
2011-04-01, 02:12:04,VALID,916.153,VALID,0,VALID,91.1456,VALID,0,VALID,20.1498,VALID,13,VALID,0.153906,
2011-04-01, 02:13:04,VALID,916.144,VALID,0,VALID,91.1379,VALID,0,VALID,20.1903,VALID,13,VALID,0.869922,
2011-04-01, 02:14:04,VALID,916.12,VALID,0,VALID,91.1837,VALID,0,VALID,20.1303,VALID,13,VALID,0.453906,
2011-04-01, 02:15:04,VALID,916.121,VALID,0,VALID,91.1532,VALID,0,VALID,20.1318,VALID,13,VALID,0.65625,
2011-04-01, 02:16:04,VALID,916.117,VALID,0,VALID,90.9321,VALID,0,VALID,20.1318,VALID,13,VALID,0.798437,
2011-04-01, 02:17:04,VALID,916.125,VALID,0,VALID,90.7568,VALID,0,VALID,20.1318,VALID,13,VALID,0.169531,
2011-04-01, 02:18:04,VALID,916.117,VALID,0,VALID,90.6805,VALID,0,VALID,20.1513,VALID,13,VALID,0.7625,
2011-04-01, 02:19:04,VALID,916.169,VALID,0,VALID,90.6577,VALID,0,VALID,20.1708,VALID,13,VALID,0.804297,
2011-04-01, 02:20:04,VALID,916.173,VALID,0,VALID,90.6958,VALID,0,VALID,20.1888,VALID,13,VALID,0.532812,
2011-04-01, 02:21:04,VALID,916.181,VALID,0,VALID,90.8483,VALID,0,VALID,20.2098,VALID,13,VALID,0.560938,
2011-04-01, 02:22:04,VALID,916.181,VALID,0,VALID,91.0693,VALID,0,VALID,20.1903,VALID,13,VALID,0.848047,
2011-04-01, 02:23:04,VALID,916.171,VALID,0,VALID,90.9626,VALID,0,VALID,20.1708,VALID,13,VALID,1.45039,
2011-04-01, 02:24:04,VALID,916.149,VALID,0,VALID,90.8635,VALID,0,VALID,20.1708,VALID,13,VALID,1.33633,
2011-04-01, 02:25:04,VALID,916.143,VALID,0,VALID,90.6119,VALID,0,VALID,20.1903,VALID,13,VALID,1.00742,
2011-04-01, 02:26:04,VALID,916.169,VALID,0,VALID,90.5967,VALID,0,VALID,20.2098,VALID,13,VALID,0.992188,
2011-04-01, 02:27:04,VALID,916.179,VALID,0,VALID,90.5128,VALID,0,VALID,20.2293,VALID,13,VALID,0.520703,
2011-04-01, 02:28:04,VALID,916.143,VALID,0,VALID,90.5967,VALID,0,VALID,20.2489,VALID,13,VALID,0.561719,
2011-04-01, 02:29:04,VALID,916.102,VALID,0,VALID,90.7644,VALID,0,VALID,20.2489,VALID,13,VALID,0.829687,
2011-04-01, 02:30:04,VALID,916.119,VALID,0,VALID,91.0541,VALID,0,VALID,20.2489,VALID,14,VALID,1.39375,
2011-04-01, 02:31:04,VALID,916.107,VALID,0,VALID,91.1379,VALID,0,VALID,20.2504,VALID,14,VALID,1.24492,
2011-04-01, 02:32:04,VALID,916.102,VALID,0,VALID,91.1456,VALID,0,VALID,20.2293,VALID,14,VALID,1.51289,
2011-04-01, 02:33:04,VALID,916.138,VALID,0,VALID,91.077,VALID,0,VALID,20.2293,VALID,14,VALID,1.00312,
2011-04-01, 02:34:04,VALID,916.141,VALID,0,VALID,90.6043,VALID,0,VALID,20.2098,VALID,14,VALID,0.864062,
2011-04-01, 02:35:04,VALID,916.161,VALID,0,VALID,90.4976,VALID,0,VALID,20.2489,VALID,14,VALID,0.479297,
2011-04-01, 02:36:04,VALID,916.177,VALID,0,VALID,90.65,VALID,0,VALID,20.2684,VALID,14,VALID,1.14141,
2011-04-01, 02:37:04,VALID,916.176,VALID,0,VALID,90.7034,VALID,0,VALID,20.2684,VALID,15,VALID,0.942578,
2011-04-01, 02:38:04,VALID,916.166,VALID,0,VALID,90.5586,VALID,0,VALID,20.2684,VALID,16,VALID,1.40898,
2011-04-01, 02:39:04,VALID,916.145,VALID,0,VALID,90.5357,VALID,0,VALID,20.2879,VALID,19,VALID,1.08398,
2011-04-01, 02:40:04,VALID,916.193,VALID,0,VALID,90.4442,VALID,0,VALID,20.2879,VALID,19,VALID,0.635547,
2011-04-01, 02:41:04,VALID,916.174,VALID,0,VALID,90.4366,VALID,0,VALID,20.3074,VALID,19,VALID,0.738672,
2011-04-01, 02:42:04,VALID,916.177,VALID,0,VALID,90.4595,VALID,0,VALID,20.3074,VALID,19,VALID,0.766797,
2011-04-01, 02:43:04,VALID,916.141,VALID,0,VALID,90.6805,VALID,0,VALID,20.3074,VALID,19,VALID,0.435937,
2011-04-01, 02:44:04,VALID,916.141,VALID,0,VALID,90.7187,VALID,0,VALID,20.2879,VALID,26,VALID,1.69258,
2011-04-01, 02:45:04,VALID,916.13,VALID,0,VALID,91.077,VALID,0,VALID,20.2684,VALID,26,VALID,1.48164,
2011-04-01, 02:46:04,VALID,916.125,VALID,0,VALID,91.0693,VALID,0,VALID,20.2489,VALID,26,VALID,1.53906,
2011-04-01, 02:47:04,VALID,916.145,VALID,0,VALID,91.1227,VALID,0,VALID,20.2684,VALID,30,VALID,1.21484,
2011-04-01, 02:48:04,VALID,916.127,VALID,0,VALID,91.1227,VALID,0,VALID,20.2684,VALID,29,VALID,0.296875,
2011-04-01, 02:49:04,VALID,916.144,VALID,0,VALID,91.1227,VALID,0,VALID,20.2489,VALID,30,VALID,0.612109,
2011-04-01, 02:50:04,VALID,916.149,VALID,0,VALID,91.1303,VALID,0,VALID,20.2489,VALID,30,VALID,0.606641,
2011-04-01, 02:51:04,VALID,916.121,VALID,0,VALID,91.2066,VALID,0,VALID,20.2293,VALID,53,VALID,1.46094,
2011-04-01, 02:52:04,VALID,916.132,VALID,0,VALID,91.4352,VALID,0,VALID,20.2489,VALID,347,VALID,1.3,
2011-04-01, 02:53:04,VALID,916.055,VALID,0,VALID,90.4671,VALID,0,VALID,20.2098,VALID,337,VALID,1.35586,
2011-04-01, 02:54:04,VALID,916.009,VALID,0,VALID,89.8191,VALID,0,VALID,20.3269,VALID,33,VALID,2.44844,
2011-04-01, 02:55:04,VALID,916.086,VALID,0,VALID,89.1406,VALID,0,VALID,20.3854,VALID,23,VALID,0.648047,
2011-04-01, 02:56:04,VALID,916.102,VALID,0,VALID,88.7747,VALID,0,VALID,20.4244,VALID,23,VALID,0.473828,
2011-04-01, 02:57:04,VALID,916.113,VALID,0,VALID,88.8967,VALID,0,VALID,20.4813,VALID,23,VALID,1.75859,
2011-04-01, 02:58:04,VALID,916.131,VALID,0,VALID,88.9348,VALID,0,VALID,20.5024,VALID,25,VALID,0.5375,
2011-04-01, 02:59:04,VALID,916.129,VALID,0,VALID,88.8738,VALID,0,VALID,20.5024,VALID,31,VALID,1.12539,
2011-04-01, 03:00:04,VALID,916.142,VALID,0,VALID,89.1254,VALID,0,VALID,20.5219,VALID,29,VALID,1.11133,
2011-04-01, 03:01:04,VALID,916.117,VALID,0,VALID,89.1101,VALID,0.107441,VALID,20.4439,VALID,29,VALID,1.1832,
2011-04-01, 03:02:04,VALID,916.106,VALID,0,VALID,89.194,VALID,0,VALID,20.4618,VALID,29,VALID,1.28828,
2011-04-01, 03:03:04,VALID,916.123,VALID,0,VALID,89.5218,VALID,0,VALID,20.4049,VALID,29,VALID,0.383984,
2011-04-01, 03:04:04,VALID,916.088,VALID,0,VALID,89.6209,VALID,0,VALID,20.4829,VALID,28,VALID,1.51719,
2011-04-01, 03:05:04,VALID,916.097,VALID,0,VALID,89.7657,VALID,0,VALID,20.3464,VALID,28,VALID,1.60117,
2011-04-01, 03:06:04,VALID,916.114,VALID,0,VALID,89.476,VALID,0,VALID,20.3854,VALID,28,VALID,1.27734,
2011-04-01, 03:07:04,VALID,916.096,VALID,0,VALID,89.4227,VALID,0.107441,VALID,20.4049,VALID,28,VALID,0.924609,
2011-04-01, 03:08:04,VALID,916.063,VALID,0,VALID,89.7962,VALID,0,VALID,20.4259,VALID,28,VALID,1.34961,
2011-04-01, 03:09:04,VALID,916.068,VALID,0,VALID,89.72,VALID,0,VALID,20.3854,VALID,28,VALID,0.811328,
2011-04-01, 03:10:04,VALID,916.074,VALID,0,VALID,89.6971,VALID,0,VALID,20.3854,VALID,28,VALID,1.01836,
2011-04-01, 03:11:04,VALID,916.068,VALID,0,VALID,89.9029,VALID,0,VALID,20.3659,VALID,28,VALID,1.3043,
2011-04-01, 03:12:04,VALID,916.063,VALID,0,VALID,89.8496,VALID,0,VALID,20.3659,VALID,26,VALID,1.45977,
2011-04-01, 03:13:04,VALID,916.06,VALID,0,VALID,89.7581,VALID,0,VALID,20.3659,VALID,24,VALID,1.51445,
2011-04-01, 03:14:04,VALID,916.056,VALID,0,VALID,89.842,VALID,0,VALID,20.3854,VALID,29,VALID,1.05195,
2011-04-01, 03:15:04,VALID,916.074,VALID,0,VALID,89.8648,VALID,0,VALID,20.3854,VALID,29,VALID,0.777734,
2011-04-01, 03:16:04,VALID,916.017,VALID,0,VALID,89.6285,VALID,0,VALID,20.3854,VALID,29,VALID,0.935547,
2011-04-01, 03:17:04,VALID,916.075,VALID,0,VALID,89.3083,VALID,0,VALID,20.4049,VALID,29,VALID,0.525,
2011-04-01, 03:18:04,VALID,916.028,VALID,0,VALID,89.5294,VALID,0,VALID,20.4439,VALID,29,VALID,0.273047,
2011-04-01, 03:19:04,VALID,916.002,VALID,0,VALID,89.6971,VALID,0,VALID,20.4439,VALID,29,VALID,0.7375,
2011-04-01, 03:20:04,VALID,915.946,VALID,0,VALID,89.8725,VALID,0,VALID,20.4244,VALID,29,VALID,1.46484,
2011-04-01, 03:21:04,VALID,915.953,VALID,0,VALID,90.0707,VALID,0,VALID,20.4049,VALID,29,VALID,0.633984,
2011-04-01, 03:22:04,VALID,915.954,VALID,0,VALID,90.2994,VALID,0,VALID,20.3854,VALID,28,VALID,1.08242,
2011-04-01, 03:23:04,VALID,915.932,VALID,0,VALID,90.4747,VALID,0,VALID,20.3253,VALID,28,VALID,0.680078,
2011-04-01, 03:24:04,VALID,915.977,VALID,0,VALID,90.7263,VALID,0,VALID,20.3269,VALID,28,VALID,0.834766,
2011-04-01, 03:25:04,VALID,915.943,VALID,0,VALID,90.8254,VALID,0.107441,VALID,20.3074,VALID,28,VALID,0.572656,
2011-04-01, 03:26:04,VALID,915.965,VALID,0,VALID,90.894,VALID,0,VALID,20.2879,VALID,28,VALID,1.27422,
2011-04-01, 03:27:04,VALID,915.969,VALID,0,VALID,91.0693,VALID,0,VALID,20.2489,VALID,28,VALID,1.12461,
2011-04-01, 03:28:04,VALID,915.967,VALID,0,VALID,91.1913,VALID,0,VALID,20.2489,VALID,28,VALID,1.22695,
2011-04-01, 03:29:04,VALID,915.925,VALID,0,VALID,90.9473,VALID,0,VALID,20.2489,VALID,21,VALID,1.48125,
2011-04-01, 03:30:04,VALID,915.944,VALID,0,VALID,91.077,VALID,0,VALID,20.2879,VALID,21,VALID,1.40586,
2011-04-01, 03:31:04,VALID,915.928,VALID,0,VALID,90.8711,VALID,0,VALID,20.2668,VALID,21,VALID,1.03516,
2011-04-01, 03:32:04,VALID,915.926,VALID,0,VALID,90.4137,VALID,0,VALID,20.3074,VALID,7,VALID,1.46719,
2011-04-01, 03:33:04,VALID,915.889,VALID,0,VALID,90.4213,VALID,0,VALID,20.3464,VALID,19,VALID,1.43906,
2011-04-01, 03:34:04,VALID,915.906,VALID,0,VALID,90.3527,VALID,0,VALID,20.3464,VALID,19,VALID,1.52695,
2011-04-01, 03:35:04,VALID,915.945,VALID,0,VALID,90.4671,VALID,0,VALID,20.3643,VALID,19,VALID,0.536719,
2011-04-01, 03:36:04,VALID,915.933,VALID,0,VALID,90.3604,VALID,0,VALID,20.3659,VALID,19,VALID,0.338281,
2011-04-01, 03:37:04,VALID,915.931,VALID,0,VALID,90.3908,VALID,0.107441,VALID,20.3659,VALID,19,VALID,0.876172,
2011-04-01, 03:38:04,VALID,915.96,VALID,0,VALID,90.5357,VALID,0,VALID,20.3269,VALID,23,VALID,1.36328,
2011-04-01, 03:39:04,VALID,915.987,VALID,0,VALID,90.7796,VALID,0,VALID,20.3269,VALID,23,VALID,0.750391,
2011-04-01, 03:40:04,VALID,915.996,VALID,0,VALID,90.7949,VALID,0,VALID,20.3269,VALID,23,VALID,1.35898,
2011-04-01, 03:41:04,VALID,916.005,VALID,0,VALID,91.1151,VALID,0,VALID,20.3074,VALID,23,VALID,1.27734,
2011-04-01, 03:42:04,VALID,916.015,VALID,0,VALID,91.1913,VALID,0,VALID,20.2684,VALID,23,VALID,0.914063,
2011-04-01, 03:43:04,VALID,916.039,VALID,0,VALID,91.3133,VALID,0,VALID,20.2684,VALID,23,VALID,0.733984,
2011-04-01, 03:44:04,VALID,916.048,VALID,0,VALID,91.3285,VALID,0,VALID,20.2684,VALID,23,VALID,0.656641,
2011-04-01, 03:45:04,VALID,916.026,VALID,0,VALID,91.3971,VALID,0,VALID,20.2684,VALID,23,VALID,0.753516,
2011-04-01, 03:46:04,VALID,916.047,VALID,0,VALID,91.5953,VALID,0,VALID,20.2489,VALID,23,VALID,1.22109,